Content
SEND FEEDBACK

Daily
Averages
Monthly
Summary
United States of America

YIGO, GUAM


Home > North America > United States > Guam
Elevation: 162 meters     Latitude: 13 32N     Longitude: 144 53E

WEATHER
 
SELECT A DAY
Number of Records: 208,919;   Date Range: 1/1/95 - 7/23/14
 
SHARE

PRINT THIS DATA

[ ← Previous Day ]
WEATHER ALMANAC - 9 JANUARY, 2013
[ Next Day → ]
[ °F ]   °C
Weather ElementAverageHighLow
Temperature26.7 °C29.4 °C (1:54 pm)24 °C (12:26 am)
Dewpoint23.7 °C25 °C (9:54 am)22.8 °C (3:54 pm)
Humidity84 %100 % (5:34 am)67 % (3:54 pm)
Barometer1009.5 hPa1011.9 hPa (8:41 am)1007.5 hPa (1:54 pm)
Wind Speed18.2 km/h27.8 km/h (5:25 am)
Wind Gust40.7 km/h (12:26 am)
Weather ElementAverage
Visibility14.2 km
Wind DirectionENE (81.8 °)

Weather ElementTotal
Precipitation23.62 mm
Cooling Degree Days8.4 (Base 18.3)
Growing Degree Days16.7 (Base 10)
Averaged from 45 records on 9 January, 2013
WEATHER CONDITIONS BREAKOUT
WIND DIRECTION BREAKOUT
WEATHER BY HOUR - 9 JANUARY, 2013
[ °F ]   °C
Local TimeTemperatureDewpointHumidityBarometerVisibilityWind DirectionWind SpeedGust SpeedPrecipitationEventsConditions
12:26 AM24 °C23 °C94 %1010.8 hPa4 kmEast (90°)24.1 km/h40.7 km/h0.51 mmRainHeavy Rain
12:31 AM24 °C23 °C94 %1010.8 hPa4.8 kmEast (100°)18.5 km/h1.02 mmRainLight Rain
12:42 AM24 °C23 °C94 %1010.5 hPa3.2 kmENE (70°)25.9 km/h37 km/h2.29 mmRainRain
12:54 AM25 °C23.9 °C94 %1009.8 hPa12.9 kmENE (60°)22.2 km/h3.56 mmRainLight Rain
1:18 AM24 °C23 °C94 %1010.2 hPa11.3 kmENE (70°)22.2 km/h38.9 km/h2.29 mmRainLight Rain
1:54 AM25.6 °C24.4 °C93 %1009.1 hPa16.1 kmENE (70°)16.7 km/h2.29 mmMostly Cloudy
2:13 AM26 °C24 °C89 %1009.5 hPa16.1 kmENE (70°)20.4 km/hMostly Cloudy
2:54 AM25.6 °C24.4 °C93 %1008.5 hPa14.5 kmEast (80°)20.4 km/hMostly Cloudy
3:54 AM25.6 °C24.4 °C93 %1008.1 hPa16.1 kmEast (80°)18.5 km/h0 mmPartly Cloudy
4:54 AM25.6 °C24.4 °C93 %1008.5 hPa16.1 kmEast (80°)14.8 km/hScattered Clouds
5:25 AM25 °C24 °C94 %1009.5 hPa6.4 kmEast (80°)27.8 km/h37 km/h0 mmRainHeavy Rain
5:34 AM24 °C24 °C100 %1009.8 hPa3.2 kmEast (90°)22.2 km/h2.54 mmRainHeavy Rain
5:46 AM25 °C24 °C94 %1009.5 hPa8 kmEast (80°)13 km/h3.81 mmRainLight Rain
5:54 AM25 °C24.4 °C96 %1009.1 hPa16.1 kmEast (80°)9.3 km/h4.06 mmMostly Cloudy
6:01 AM25 °C24 °C94 %1009.8 hPa16.1 kmEast (80°)18.5 km/h29.6 km/hMostly Cloudy
6:54 AM25.6 °C24.4 °C93 %1009.8 hPa16.1 kmEast (80°)13 km/hPartly Cloudy
7:54 AM26.7 °C24.4 °C87 %1010.8 hPa16.1 kmEast (80°)13 km/hScattered Clouds
8:41 AM27 °C24 °C84 %1011.9 hPa16.1 kmEast (90°)14.8 km/h29.6 km/hMostly Cloudy
8:54 AM27.2 °C24.4 °C85 %1010.8 hPa16.1 kmEast (80°)18.5 km/h29.6 km/hMostly Cloudy
9:04 AM28 °C24 °C79 %1011.5 hPa16.1 kmEast (100°)20.4 km/hScattered Clouds
9:54 AM28.3 °C25 °C82 %1010.5 hPa16.1 kmEast (80°)22.2 km/h38.9 km/hScattered Clouds
10:32 AM28 °C24 °C79 %1010.8 hPa16.1 kmEast (90°)22.2 km/h35.2 km/hScattered Clouds
10:54 AM28.9 °C23.9 °C74 %1010.2 hPa16.1 kmEast (100°)25.9 km/h37 km/hScattered Clouds
11:38 AM29 °C23 °C70 %1010.2 hPa16.1 kmEast (100°)20.4 km/h35.2 km/hMostly Cloudy
11:54 AM28.9 °C23.9 °C74 %1009.1 hPa16.1 kmEast (90°)22.2 km/h38.9 km/hScattered Clouds
12:54 PM28.9 °C23.3 °C72 %1008.1 hPa16.1 kmEast (80°)27.8 km/h37 km/hScattered Clouds
1:12 PM29 °C23 °C70 %1008.8 hPa16.1 kmENE (70°)27.8 km/hMostly Cloudy
1:54 PM29.4 °C23.3 °C69 %1007.5 hPa16.1 kmEast (90°)18.5 km/hScattered Clouds
2:03 PM29 °C23 °C70 %1008.5 hPa16.1 kmEast (80°)22.2 km/h31.5 km/hMostly Cloudy
2:32 PM29 °C23 °C70 %1008.1 hPa16.1 kmENE (70°)25.9 km/hMostly Cloudy
2:54 PM28.9 °C23.3 °C72 %1007.5 hPa16.1 kmEast (80°)25.9 km/h37 km/hScattered Clouds
3:04 PM28 °C23 °C74 %1008.1 hPa16.1 kmEast (80°)16.7 km/h0 mmMostly Cloudy
3:12 PM28 °C23 °C74 %1008.1 hPa16.1 kmEast (80°)16.7 km/h0 mmMostly Cloudy
3:54 PM29.4 °C22.8 °C67 %1007.5 hPa16.1 kmEast (90°)20.4 km/hPartly Cloudy
4:54 PM28.3 °C22.8 °C72 %1007.8 hPa16.1 kmEast (90°)20.4 km/hClear
5:54 PM27.2 °C22.8 °C77 %1008.5 hPa16.1 kmEast (80°)13 km/hPartly Cloudy
6:54 PM26.7 °C22.8 °C79 %1009.1 hPa16.1 kmEast (80°)13 km/hPartly Cloudy
7:54 PM26.7 °C22.8 °C79 %1009.5 hPa16.1 kmENE (70°)9.3 km/hScattered Clouds
8:54 PM26.1 °C23.9 °C88 %1009.8 hPa16.1 kmEast (80°)7.4 km/h0 mmMostly Cloudy
9:24 PM26 °C23 °C83 %1010.5 hPa16.1 kmEast (90°)7.4 km/hMostly Cloudy
9:54 PM26.1 °C23.9 °C88 %1009.8 hPa8 kmENE (70°)14.8 km/h1.27 mmRainLight Rain
10:54 PM25.6 °C24.4 °C93 %1009.8 hPa16.1 kmEast (80°)9.3 km/h0 mmScattered Clouds
11:05 PM26 °C24 °C89 %1010.5 hPa16.1 kmEast (80°)9.3 km/hMostly Cloudy
11:14 PM26 °C24 °C89 %1010.5 hPa16.1 kmEast (80°)11.1 km/hScattered Clouds
11:54 PM25.6 °C23.3 °C87 %1009.8 hPa16.1 kmEast (90°)13 km/hPartly Cloudy
Hourly data recorded from PGUM, located 0 kilometers away from Yigo, Guam







STORIES FROM OUR PARTNERS